Regional Weather Roundup
Issued by NWS

Home | Current Version | Previous Version | Text Only | Print | Product List | Glossary On
Versions: 1 2 3 4 5 6 7 8 9 10 11 12 13 14 15 16 17 18 19 20 21 22 23 24 25 26 27 28 29 30 31 32 33 34 35 36 37 38 39 40 41 42 43 44 45 46 47 48 49
000
ASCA42 TJSJ 021510
RWRPR
PUERTO RICO/U.S. VIRGIN ISLANDS HOURLY WEATHER ROUNDUP
NATIONAL WEATHER SERVICE SAN JUAN PR
1100 AM AST TUE JUN 02 2015

PRZ001-004-021600-
PUERTO RICO

CITY           SKY/WX    TMP DP  RH WIND       PRES   REMARKS
SAN JUAN LMM   MOSUNNY   86  77  74 NE13      30.01F HX  97
AGUADILLA      MOSUNNY   84  73  70 E14       30.03S HX  91
CEIBA          PTSUNNY   86  75  70 SE14      30.04S HX  95
$$

PRZ006-007-021600-
U.S. VIRGIN ISLANDS

CITY           SKY/WX    TMP DP  RH WIND       PRES   REMARKS
CHARLOTTE AMA  MOSUNNY   84  73  70 SE13      30.02S HX  91
CHRISTIANSTED  MOSUNNY   86  73  66 SE12      30.03F HX  93
$$

HOURLY WEATHER ROUNDUP FOR THE NEWS MEDIA

CITY           SKY/WX    TMP DP  RH WIND       PRES   REMARKS
ORLANDO        CLOUDY    79  71  76 S3        30.03S
NEW YORK       LGT RAIN  53  49  86 NE10      30.15R FOG
NEWARK         LGT RAIN  53  50  89 NE9       30.15R
CHICAGO        MOSUNNY   61  47  59 CALM      30.20F
HARTFORD       LGT RAIN  49  47  93 N5        30.13R
BOSTON         CLOUDY    47  46  97 NE16      30.19R
DALLAS         PTSUNNY   79  63  57 S12       30.05S
PHILADELPHIA   CLOUDY    55  51  86 NE12      30.12S
LOS ANGELES    PTSUNNY   61  57  87 E3        30.00R
WASHINGTON DC  LGT RAIN  60  58  92 N13       30.09R FOG


USA.gov is the U.S. government's official web portal to all federal, state and local government web resources and services.